London, United Kingdom

3:25 PM BST on April 25, 2018 (GMT +0100)
Heathrow

Weather History for EGLL - November, 2011

Change the Weather History Date:

Tuesday, November 1, 2011

  Actual Average Record
Temperature  
Mean Temperature 54 °F -  
Max Temperature 61 °F 50 °F 64 °F (2014)
Min Temperature 46 °F 39 °F 30 °F (1997)
Degree Days  
Heating Degree Days 12    
Growing Degree Days 4 (Base 50)    
Moisture  
Dew Point 49 °F    
Average Humidity 81    
Maximum Humidity 94    
Minimum Humidity 49    
Precipitation  
Precipitation 0.02 in - - ()
Sea Level Pressure  
Sea Level Pressure 29.81 in    
Wind  
Wind Speed 8 mph ()    
Max Wind Speed 13 mph    
Max Gust Speed -    
Visibility 7.3 miles    
Events Rain    
Averages and records for this station are not official NWS values.
T = Trace of Precipitation, MM = Missing Value Source: Averaged Metar Reports

Daily Weather History Graph

Daily Weather History Graph

Search for Another Location

Airport or City:

Astronomy

Nov. 01, 2011 Rise Set
Actual Time 6:54 AM GMT 4:35 PM GMT
Civil Twilight 6:19 AM GMT 5:10 PM GMT
Nautical Twilight 5:39 AM GMT 5:50 PM GMT
Astronomical Twilight 5:01 AM GMT 6:28 PM GMT
Moon 12:41 PM GMT (11/1) 9:54 PM GMT (11/1)
Length of Visible Light 10h 51m
Length of Day
9h 41m
Waxing Crescent, 38% of the Moon is Illuminated
Nov 1
Waxing Crescent
Nov 2
First Quarter
Nov 10
Full
Nov 18
Last Quarter
Nov 25
New

Hourly Weather History & Observations

Time (GMT) Temp. Windchill Dew Point Humidity Pressure Visibility Wind Dir Wind Speed Gust Speed Precip Events Conditions
12:20 AM 55.4 °F - 51.8 °F 88% 29.74 in 6.2 mi SSE 10.4 mph - N/A   Partly Cloudy
12:50 AM 55.4 °F - 51.8 °F 88% 29.74 in 6.2 mi SSE 6.9 mph - N/A   Partly Cloudy
1:20 AM 53.6 °F - 51.8 °F 94% 29.74 in 6.2 mi SE 5.8 mph - N/A   Mostly Cloudy
1:50 AM 55.4 °F - 53.6 °F 94% 29.74 in 6.2 mi South 8.1 mph - N/A   Unknown
2:20 AM 57.2 °F - 53.6 °F 88% 29.71 in 6.2 mi SSE 12.7 mph - N/A   Partly Cloudy
2:50 AM 58 °F - 54 °F 83% 29.72 in 9 mi South 9.2 mph - - Rain Light Rain Showers
2:50 AM 57.2 °F - 53.6 °F 88% 29.71 in 6.2 mi South 9.2 mph - N/A   Scattered Clouds
3:20 AM 57.2 °F - 53.6 °F 88% 29.71 in 6.2 mi South 10.4 mph - N/A   Scattered Clouds
3:50 AM 57.2 °F - 53.6 °F 88% 29.71 in 6.2 mi South 9.2 mph - N/A   Partly Cloudy
4:20 AM 57.2 °F - 53.6 °F 88% 29.71 in 6.2 mi South 9.2 mph - N/A   Partly Cloudy
4:50 AM 57.2 °F - 53.6 °F 88% 29.71 in 6.2 mi South 8.1 mph - N/A Rain Light Rain
5:20 AM 57.2 °F - 53.6 °F 88% 29.71 in 6.2 mi SSW 8.1 mph - N/A   Scattered Clouds
5:50 AM 55 °F - 49 °F 74% 29.73 in 25 mi WNW 10.4 mph - - Rain Rain
5:50 AM 53.6 °F - 50.0 °F 88% 29.74 in 6.2 mi WNW 11.5 mph - N/A   Scattered Clouds
6:20 AM 53.6 °F - 48.2 °F 82% 29.74 in 6.2 mi WNW 5.8 mph - N/A   Scattered Clouds
6:50 AM 53.6 °F - 48.2 °F 82% 29.74 in 6.2 mi Calm Calm - N/A   Scattered Clouds
7:20 AM 51.8 °F - 48.2 °F 88% 29.77 in 6.2 mi West 8.1 mph - N/A Rain Rain
7:50 AM 51.8 °F - 50.0 °F 94% 29.77 in 6.2 mi West 5.8 mph - N/A   Partly Cloudy
8:20 AM 53.6 °F - 50.0 °F 88% 29.80 in 6.2 mi West 8.1 mph - N/A   Mostly Cloudy
8:50 AM 54 °F - 51 °F 84% 29.80 in 25 mi West 9.2 mph - -   Overcast
8:50 AM 53.6 °F - 50.0 °F 88% 29.80 in 6.2 mi West 9.2 mph - N/A   Partly Cloudy
9:20 AM 53.6 °F - 50.0 °F 88% 29.80 in 6.2 mi West 9.2 mph - N/A   Scattered Clouds
9:50 AM 55.4 °F - 50.0 °F 82% 29.80 in 6.2 mi West 8.1 mph - N/A   Scattered Clouds
10:20 AM 55.4 °F - 50.0 °F 82% 29.80 in 6.2 mi WSW 9.2 mph - N/A   Mostly Cloudy
10:50 AM 57.2 °F - 50.0 °F 77% 29.83 in 6.2 mi WSW 9.2 mph - N/A   Mostly Cloudy
11:20 AM 57.2 °F - 50.0 °F 77% 29.83 in 6.2 mi West 9.2 mph - N/A   Mostly Cloudy
11:50 AM 58 °F - 49 °F 65% 29.83 in 19 mi West 8.1 mph - -   Partly Cloudy
11:50 AM 55.4 °F - 50.0 °F 82% 29.83 in 6.2 mi West 9.2 mph - N/A   Scattered Clouds
12:20 PM 57.2 °F - 48.2 °F 72% 29.83 in 6.2 mi West 10.4 mph - N/A   Scattered Clouds
12:50 PM 57.2 °F - 48.2 °F 72% 29.83 in 6.2 mi SW 8.1 mph - N/A   Partly Cloudy
1:20 PM 59.0 °F - 48.2 °F 67% 29.83 in 6.2 mi SW 8.1 mph - N/A   Partly Cloudy
1:50 PM 57.2 °F - 48.2 °F 72% 29.83 in 6.2 mi WSW 6.9 mph - N/A   Partly Cloudy
2:20 PM 60.8 °F - 46.4 °F 59% 29.83 in 6.2 mi WSW 11.5 mph - N/A   Partly Cloudy
2:50 PM 59 °F - 45 °F 49% 29.84 in 19 mi SW 10.4 mph - -   Scattered Clouds
2:50 PM 59.0 °F - 44.6 °F 59% 29.83 in 6.2 mi WSW 10.4 mph - N/A   Partly Cloudy
3:20 PM 59.0 °F - 46.4 °F 63% 29.83 in 6.2 mi SW 8.1 mph - N/A   Partly Cloudy
3:50 PM 59.0 °F - 46.4 °F 63% 29.83 in 6.2 mi SW 6.9 mph - N/A   Partly Cloudy
4:20 PM 57.2 °F - 46.4 °F 67% 29.83 in 6.2 mi SSW 6.9 mph - N/A   Partly Cloudy
4:50 PM 55.4 °F - 46.4 °F 72% 29.86 in 6.2 mi SSW 6.9 mph - N/A   Partly Cloudy
5:20 PM 55.4 °F - 46.4 °F 72% 29.86 in 6.2 mi SSW 8.1 mph - N/A   Partly Cloudy
5:50 PM 55 °F - 46 °F 64% 29.88 in 17 mi South 8.1 mph - -  
5:50 PM 53.6 °F - 46.4 °F 77% 29.86 in 6.2 mi SSW 6.9 mph - N/A   Partly Cloudy
6:20 PM 53.6 °F - 46.4 °F 77% 29.86 in - South 8.1 mph - N/A   Clear
6:50 PM 51.8 °F - 46.4 °F 82% 29.89 in - SSW 5.8 mph - N/A   Clear
7:20 PM 50.0 °F - 46.4 °F 87% 29.89 in - SSW 5.8 mph - N/A   Clear
7:50 PM 50.0 °F - 46.4 °F 87% 29.89 in - SSW 6.9 mph - N/A   Clear
8:20 PM 50.0 °F - 46.4 °F 87% 29.89 in - South 6.9 mph - N/A   Clear
8:50 PM 51 °F - 46 °F 78% 29.91 in 13 mi South 5.8 mph - -  
8:50 PM 50.0 °F - 46.4 °F 87% 29.89 in - South 5.8 mph - N/A   Clear
9:20 PM 48.2 °F - 46.4 °F 93% 29.89 in - SSE 4.6 mph - N/A   Clear
9:50 PM 46.4 °F 44.3 °F 44.6 °F 93% 29.89 in - SE 4.6 mph - N/A   Clear
10:20 PM 48.2 °F - 46.4 °F 93% 29.89 in 6.2 mi SE 4.6 mph - N/A   Partly Cloudy
10:50 PM 48.2 °F - 44.6 °F 87% 29.89 in - SE 4.6 mph - N/A   Clear
11:20 PM 48.2 °F - 46.4 °F 93% 29.89 in 6.2 mi SSE 4.6 mph - N/A   Partly Cloudy
11:50 PM 46 °F - 44 °F 90% 29.88 in 10 mi ESE 4.6 mph - -  
11:50 PM 46.4 °F 44.3 °F 44.6 °F 93% 29.86 in - SE 4.6 mph - N/A   Clear